Temp
8 8 8 8 8 9 9 9 8 9 9 9 9 9 10 11 11 11 11 13 14 14 13 14 13 13 14 13 12 12 11 11 12 14 14 13 13 9 9 9 6 5 6 5 6
8 8 8 9 8 8 8 8 8 8 8 9 8 9 10 11 11 10 14 14 13 13 14 13 12 13 12 13 12 12 12 12 13 13 13 13 12 11 10 10 8 6 5 5 5
8 8 8 8 8 8 8 8 8 8 8 8 9 9 10 11 11 12 15 13 13 14 14 14 13 13 12 14 14 13 12 13 13 13 13 13 12 10 11 11 10 9 6 5 5
8 8 8 8 8 8 8 8 8 8 8 8 9 9 10 10 13 15 14 13 13 13 14 13 12 12 13 14 15 13 14 13 12 12 12 13 11 10 8 7 5 7 6 5 5
7 8 8 8 8 8 8 8 8 8 8 8 9 9 10 11 13 14 15 14 14 13 13 12 12 12 12 12 14 14 13 13 12 11 12 11 11 10 8 5 5 6 5 5 4
7 7 7 7 7 8 7 7 8 8 8 8 8 9 10 10 14 14 14 14 14 13 13 13 13 12 13 13 13 14 12 11 11 11 11 11 8 10 7 4 5 5 5 4 4
7 7 7 7 7 7 7 7 8 8 8 8 8 9 10 10 14 14 14 14 14 13 11 13 13 13 13 13 11 11 11 11 10 11 11 10 9 9 5 5 5 5 4 4 3
7 7 7 7 7 7 7 8 8 8 8 8 9 9 10 13 13 14 14 14 13 13 14 13 14 12 12 11 12 11 11 11 11 10 10 11 14 9 4 5 5 5 4 4 3
6 6 6 7 8 8 9 10 10 9 8 9 9 10 10 13 13 14 14 13 12 12 13 13 13 12 12 12 12 10 10 11 12 11 10 10 13 7 4 5 5 5 5 4 3
6 6 6 7 9 10 11 11 10 10 10 10 10 10 11 13 14 14 14 13 13 12 12 12 12 12 12 12 13 11 10 11 11 10 10 9 9 6 4 4 5 5 5 4 3
6 6 8 9 9 10 11 11 9 9 10 10 11 11 13 14 14 14 13 13 12 11 10 11 11 12 13 12 13 11 11 11 11 10 9 8 9 9 4 3 4 4 4 4 3
6 6 6 9 10 10 10 9 9 8 8 10 10 11 11 12 12 13 13 13 12 10 10 10 11 12 13 14 13 13 11 11 12 9 9 9 9 9 3 4 5 5 4 4 3
5 5 5 8 10 10 9 9 9 9 9 10 10 11 11 12 12 12 12 13 12 10 10 10 12 12 12 11 12 13 13 11 12 9 9 9 9 9 5 4 4 5 5 4 3
5 5 5 9 9 9 9 9 10 9 8 10 11 12 12 12 12 13 13 13 12 11 10 11 12 11 12 11 11 11 11 12 10 10 11 10 12 9 9 5 3 4 4 4 3
5 5 5 5 7 8 9 9 10 9 9 12 11 13 12 12 13 12 12 12 11 11 11 11 11 11 11 12 12 12 12 11 9 10 9 9 10 10 7 9 7 4 4 4 4
5 5 5 7 7 9 9 10 10 10 10 12 12 12 12 13 12 12 12 11 12 11 10 11 12 12 13 13 13 13 12 11 10 10 11 12 10 13 12 11 11 7 6 5 4
7 9 7 7 8 9 9 9 9 10 13 12 12 11 11 11 11 11 11 10 11 11 11 11 11 12 13 12 12 12 10 11 11 10 11 11 9 12 11 13 14 14 9 6 4
8 10 9 9 9 8 9 10 9 13 12 12 12 12 11 12 11 11 10 11 10 11 11 10 11 11 12 13 11 11 11 12 12 11 11 10 10 11 12 13 11 13 10 5 3
10 9 8 8 8 8 8 8 10 11 11 11 11 11 11 12 11 10 10 10 11 10 10 11 11 12 12 13 13 10 10 12 11 12 11 9 9 10 9 9 8 8 5 3 1
8 6 8 8 9 8 9 9 10 11 11 11 11 11 10 11 10 11 11 10 10 10 9 10 10 10 10 12 12 11 11 10 10 11 12 10 10 12 10 8 8 6 4 1 -1
7 5 8 8 8 6 7 7 9 11 11 10 10 10 10 8 9 9 10 10 9 9 9 9 9 8 10 11 11 11 10 10 10 11 12 12 11 5 5 3 2 4 -0 -2 -3
4 6 8 8 6 5 6 8 10 10 11 9 7 7 7 7 7 8 9 10 7 8 8 8 8 5 8 10 10 10 10 9 9 10 9 10 11 3 2 1 2 -1 -2 -5 -5
1 1 7 8 5 5 5 7 9 9 9 9 8 9 9 9 6 7 9 7 7 8 7 7 7 7 7 7 8 7 6 6 7 7 7 8 10 3 4 1 -1 -4 -5 -5 -7
1 4 3 3 6 7 6 6 7 8 8 7 8 8 6 6 8 6 7 7 6 7 9 7 5 5 6 6 6 6 6 6 6 4 5 7 5 8 7 7 -1 -4 -6 -6 -8
-2 1 0 3 3 3 5 5 6 6 5 6 6 4 5 4 4 6 6 6 6 7 6 5 5 4 6 6 6 5 5 6 5 4 4 4 5 6 7 6 1 -4 -7 -7 -8
0 -0 -2 -1 1 3 3 5 4 4 4 4 4 4 4 4 4 3 4 3 4 3 4 1 4 4 3 5 4 4 4 3 4 4 3 3 4 5 -1 -3 -4 -6 -6 -7 -8
-1 -1 -2 1 1 3 2 2 3 3 4 4 3 2 3 3 2 2 1 1 2 2 1 2 2 1 2 -0 -1 -3 -1 4 5 5 4 4 2 -2 -1 -1 -4 -6 -6 -7 -8
Height
809 806 803 800 797 794 791 788 787 785 784 783 782 780 778 776 775 775 773 770 771 773 775 774 783 780 781 785 786 792 799 805 801 795 795 795 796 806 806 808 810 808 811 814 813
809 806 802 798 796 793 792 789 786 784 782 780 780 779 778 775 773 771 767 767 770 772 774 775 777 783 784 785 784 789 798 801 798 796 797 796 799 806 805 809 813 808 812 815 814
809 805 801 798 795 792 791 789 786 783 781 780 778 778 777 776 775 766 764 764 767 771 773 775 777 779 787 782 783 785 791 793 796 796 796 797 798 808 805 805 809 805 816 816 817
808 804 801 797 794 792 790 788 787 785 781 779 777 777 776 777 775 764 763 764 767 769 771 774 778 782 781 782 778 785 783 787 793 796 798 798 803 807 812 812 814 806 812 818 820
807 803 800 796 793 790 788 786 785 784 783 780 777 776 776 776 769 765 763 763 765 767 769 773 778 781 782 781 779 780 785 786 791 798 800 802 803 803 807 817 815 812 815 821 821
805 801 798 795 791 788 786 784 781 780 780 780 778 777 776 777 763 764 764 763 762 765 769 772 773 776 778 779 782 778 786 793 794 794 799 803 811 802 807 815 814 814 816 822 822
805 801 796 792 789 786 783 781 780 778 776 777 778 777 775 769 762 762 764 763 763 762 767 771 772 776 777 780 784 787 792 794 798 798 797 799 810 806 809 813 814 816 820 823 825
804 801 796 791 788 785 782 779 777 777 777 776 776 777 772 761 760 760 762 763 763 763 765 768 771 775 777 782 783 788 790 794 792 796 796 798 786 797 808 811 813 816 819 823 824
804 800 796 791 787 784 782 778 775 774 775 775 776 777 771 761 760 758 759 761 764 766 766 766 770 775 778 780 782 791 798 794 785 790 795 795 783 797 807 807 810 812 816 820 821
802 798 794 790 787 784 780 778 776 774 773 774 774 777 764 758 756 757 758 760 762 767 770 770 771 773 777 778 773 783 791 790 785 787 792 794 793 801 808 807 805 810 812 814 816
801 796 792 789 786 784 780 778 779 777 773 766 763 761 756 756 755 756 757 759 763 767 772 773 774 764 768 774 769 776 780 779 779 782 788 791 788 787 806 810 809 807 808 807 810
801 796 791 788 785 783 781 781 784 785 775 759 758 758 755 757 757 754 756 758 761 769 770 774 767 764 763 763 767 771 777 777 775 784 787 787 789 782 801 798 794 794 798 799 804
801 796 791 787 784 783 783 783 782 781 777 757 752 752 753 755 756 753 754 754 758 767 768 768 760 760 766 768 768 767 767 779 772 787 789 788 787 778 788 791 790 786 787 791 793
799 794 790 785 787 785 784 783 782 781 781 759 752 748 748 748 752 747 749 753 758 761 764 763 756 759 762 765 767 770 769 770 780 780 776 783 764 771 771 782 785 781 781 781 786
797 792 789 787 786 785 785 782 782 783 788 754 752 749 748 751 751 749 750 752 756 759 762 758 758 759 761 751 762 760 762 766 777 780 784 784 778 755 768 760 757 771 769 770 774
793 788 785 785 785 783 782 782 782 785 774 752 751 752 752 750 751 751 751 752 753 757 759 758 752 751 748 749 751 754 760 767 771 776 761 757 771 732 744 745 743 749 752 754 761
789 784 782 783 782 782 782 781 787 781 750 755 752 753 755 754 752 751 753 755 754 758 754 749 747 745 744 752 753 755 763 758 760 763 746 745 766 731 733 724 719 719 730 738 751
785 782 780 780 781 781 782 783 787 757 759 755 755 753 753 751 751 750 753 751 750 751 750 751 742 737 735 735 743 748 748 743 738 742 746 749 743 728 718 715 719 714 722 734 746
784 780 779 780 781 783 787 793 777 766 764 765 758 755 754 751 754 752 753 749 742 745 750 743 740 730 729 726 732 748 745 736 738 734 739 745 742 723 725 724 725 725 730 737 747
785 783 781 781 782 785 783 780 773 766 764 761 764 758 764 757 762 753 750 748 744 746 746 743 737 736 735 731 731 735 735 741 741 730 721 732 733 717 721 725 721 730 733 742 750
788 788 784 783 784 788 790 787 773 766 765 769 767 765 766 770 766 764 755 749 751 751 751 751 751 749 737 733 730 738 737 739 733 726 714 713 715 752 747 750 749 738 749 756 761
794 795 784 784 792 794 794 779 774 768 766 770 777 782 779 780 777 764 759 755 760 759 755 758 756 768 753 734 733 733 736 742 746 731 729 729 716 750 754 754 751 754 759 764 767
802 798 786 785 795 797 790 783 777 774 773 772 777 772 767 768 780 767 759 764 768 765 764 764 761 759 753 748 744 751 762 765 759 751 749 738 724 749 743 749 759 764 766 768 776
803 800 795 791 792 789 791 786 781 776 775 776 775 772 779 778 767 772 771 765 767 765 760 767 773 773 767 762 762 755 756 756 760 770 764 748 751 731 734 730 753 763 767 772 775
808 813 813 805 800 803 797 791 787 786 785 782 779 787 783 789 782 771 766 768 766 764 767 769 769 771 760 758 758 758 753 750 760 761 766 758 749 740 731 731 743 758 767 771 776
814 818 815 814 808 802 800 794 794 794 793 789 789 789 789 791 786 788 779 783 776 774 772 779 768 766 768 758 759 758 759 762 755 754 755 754 745 738 750 752 757 760 765 768 773
818 819 820 809 809 805 809 806 800 799 792 792 793 796 792 789 792 789 788 786 782 781 782 777 774 780 770 783 784 798 779 751 742 739 740 742 748 757 749 750 757 762 763 767 772
Wind_Speed
16 15 16 16 15 15 13 11 11 10 10 13 12 13 11 11 10 4 6 9 9 9 2 15 13 14 9 3 5 3 3 1 3 1 3 4 3 4 3 2 2 4 3 2 14
16 16 15 15 15 15 14 13 11 10 10 10 11 11 11 11 8 8 12 10 12 4 11 15 8 9 2 2 4 3 3 4 4 4 4 5 4 3 1 2 1 2 4 5 10
17 16 16 16 16 15 15 15 13 11 10 9 8 9 11 7 3 5 8 11 11 10 6 9 16 8 4 4 3 6 4 7 4 6 5 2 2 1 4 3 1 2 7 6 7
18 18 18 18 17 16 15 15 15 13 11 9 5 8 8 2 2 1 4 2 12 11 8 9 5 5 7 6 7 4 6 8 2 3 5 3 2 2 2 2 5 1 9 3 5
19 19 20 19 18 17 15 14 14 13 12 10 4 6 2 4 6 5 2 3 10 14 12 6 5 4 6 6 6 5 3 7 8 7 9 6 2 3 3 3 3 10 7 5 5
19 20 20 20 17 16 14 14 12 11 12 9 6 6 2 4 4 3 2 2 9 14 12 6 5 5 4 3 8 4 6 6 5 9 7 4 2 2 3 6 6 5 6 3 4
21 21 21 20 18 16 13 12 13 11 7 7 8 5 3 10 4 5 4 2 6 19 6 9 4 4 1 2 1 6 6 2 5 6 5 8 4 7 4 6 6 6 5 5 6
21 21 21 19 16 15 14 13 12 10 9 7 3 4 6 5 6 9 8 5 4 14 6 12 7 3 2 5 3 4 4 4 4 8 4 6 10 6 11 12 11 11 9 9 8
22 22 21 19 18 15 15 11 7 5 5 2 3 2 8 7 5 5 9 6 6 7 5 10 7 3 3 4 3 3 3 5 3 8 4 5 5 3 9 11 9 9 9 9 9
23 22 21 19 14 16 16 7 5 3 3 4 7 2 6 2 2 2 5 14 4 4 2 2 4 5 3 4 10 6 4 4 5 5 4 3 9 2 7 9 8 8 9 10 11
23 22 19 15 13 16 15 4 4 2 5 7 4 4 2 4 2 4 6 7 4 3 6 3 4 15 12 10 5 6 6 7 3 6 6 8 8 8 9 9 11 12 12 12 12
24 24 22 16 14 11 7 3 2 2 10 11 15 10 12 5 3 3 10 6 5 5 5 3 13 11 7 10 11 5 5 7 2 3 6 2 10 8 10 9 13 16 14 15 11
26 25 25 19 14 3 3 2 5 4 5 7 4 5 5 9 5 5 9 4 4 6 7 6 4 9 6 4 10 10 15 5 5 3 1 1 6 7 7 6 7 13 11 13 16
26 25 24 18 3 6 2 4 7 4 5 5 3 4 4 6 4 6 12 4 1 8 5 6 5 5 9 10 11 15 7 7 6 5 8 6 10 7 6 9 11 12 14 16 16
26 25 23 11 9 3 3 8 6 1 6 2 1 3 1 4 2 2 1 1 5 5 4 5 5 6 8 19 9 12 8 10 5 7 2 3 4 7 3 9 11 14 18 18 16
27 26 19 4 4 5 5 7 0 2 6 2 2 1 2 3 3 2 1 3 1 3 4 5 2 4 7 5 13 3 2 3 3 4 11 15 11 17 11 10 6 6 17 19 18
31 20 11 4 2 1 5 1 1 3 3 4 1 2 1 2 3 6 4 3 5 3 7 4 9 5 5 4 1 8 5 4 4 5 7 12 11 17 7 14 22 19 15 17 16
29 17 6 6 1 6 1 1 3 1 2 3 3 2 2 3 5 2 2 4 7 4 3 4 6 10 8 16 9 13 10 6 7 4 5 2 7 9 12 16 12 16 3 12 16
26 11 4 4 7 1 2 2 4 2 3 6 8 2 2 2 4 3 5 5 5 12 8 5 7 1 3 6 10 4 10 14 11 12 5 4 6 8 5 7 4 9 5 9 13
17 8 4 4 6 2 3 4 4 2 4 2 3 2 9 4 7 7 4 1 4 2 3 2 7 1 4 2 4 11 4 3 5 5 8 5 5 7 3 9 9 7 9 7 10
8 4 3 1 1 3 3 5 4 5 3 4 5 5 4 4 6 6 4 5 6 5 5 1 3 5 2 4 6 3 2 3 3 4 3 2 3 4 5 5 8 5 6 6 9
5 3 2 1 2 1 2 3 5 4 1 2 3 3 5 7 6 5 4 4 7 3 5 3 3 3 8 8 1 1 4 2 4 6 4 6 3 2 5 5 7 5 6 8 9
2 2 3 0 1 2 4 5 3 3 4 5 1 5 4 5 5 8 2 3 7 9 5 4 3 5 8 2 4 3 3 1 6 3 6 6 3 4 1 5 3 4 5 9 8
2 3 4 3 1 3 3 4 4 3 2 5 4 2 6 7 1 3 9 5 7 5 11 5 1 5 8 8 4 11 2 2 3 3 6 8 12 19 6 8 3 4 7 8 11
4 0 2 3 3 5 2 3 4 5 6 6 3 6 5 3 5 7 5 3 2 6 2 2 6 4 9 12 12 13 16 12 9 9 8 7 15 15 13 8 4 8 9 11 12
2 3 4 3 3 4 5 2 3 4 6 3 4 4 3 4 6 12 12 2 5 3 3 0 10 7 9 11 11 15 11 9 13 12 13 15 21 14 3 3 1 7 11 11 12
4 3 2 4 4 2 3 5 4 6 2 4 5 5 10 9 5 7 5 6 7 3 3 3 3 2 12 3 4 5 8 16 10 9 7 11 7 4 5 5 1 7 10 11 12
Wind_Direction
344 342 343 339 334 333 330 326 324 322 325 327 326 329 337 330 326 283 233 223 211 230 213 156 148 150 93 102 110 132 80 147 167 311 3 61 73 12 20 103 16 17 21 75 140
343 341 341 336 333 328 324 318 316 318 318 320 323 325 332 327 320 265 273 245 218 173 164 160 145 153 74 187 145 125 132 208 216 328 21 11 69 339 149 185 188 48 35 126 141
343 340 339 337 333 328 323 318 316 314 313 311 317 330 327 321 327 252 332 229 213 179 163 177 156 145 196 174 190 163 166 160 173 276 325 343 69 310 178 221 340 180 180 152 146
345 343 341 336 332 327 323 318 314 310 307 304 310 324 324 249 264 295 10 168 204 178 150 149 120 179 185 206 195 143 153 131 153 191 292 280 138 187 269 294 299 179 138 143 147
348 345 341 336 330 322 318 315 311 307 303 301 301 322 339 243 249 285 286 189 191 185 176 155 146 169 183 189 161 198 143 173 157 181 218 147 225 229 198 143 83 113 125 142 116
348 347 341 335 330 323 315 311 310 300 296 293 299 320 237 258 189 142 308 206 180 183 187 159 182 193 201 202 175 185 141 143 166 159 156 151 303 172 115 150 129 137 139 150 168
347 344 340 336 330 322 315 309 310 301 285 281 289 297 274 246 213 237 308 251 218 197 145 191 110 148 63 122 122 120 102 128 180 183 172 137 199 238 122 161 164 179 177 184 192
346 344 343 343 340 334 322 312 303 294 288 282 248 275 256 247 263 259 242 256 238 195 178 186 153 111 70 136 70 93 99 159 188 170 173 214 218 191 160 170 195 189 189 196 199
346 344 344 342 341 342 336 326 327 308 276 245 250 227 267 299 258 236 213 170 138 183 156 161 138 173 114 155 134 58 197 197 226 196 145 184 232 140 174 184 206 201 198 204 202
345 344 342 340 342 341 334 312 316 335 174 205 259 238 267 249 187 172 170 159 130 117 101 163 152 164 179 194 213 181 212 230 216 196 176 171 265 190 202 212 219 202 202 206 215
342 342 340 336 333 340 342 329 5 314 235 211 197 230 290 323 269 203 163 137 102 114 172 237 189 207 194 204 216 181 185 199 228 179 153 205 243 212 189 210 223 214 207 206 214
340 340 337 329 324 328 340 63 65 272 298 236 247 251 271 289 303 229 168 169 153 194 147 134 230 216 209 203 221 193 208 228 192 160 177 121 255 250 177 213 216 213 210 210 193
339 338 338 329 329 328 22 65 337 344 272 283 204 218 207 171 228 241 166 170 167 173 197 191 211 189 200 179 226 237 233 205 217 130 257 7 263 248 222 241 225 224 216 209 198
337 337 336 333 344 343 311 334 333 334 298 273 237 272 149 136 246 216 193 161 189 206 190 239 217 190 201 222 192 239 191 189 175 178 242 172 273 224 211 234 224 220 212 212 203
335 333 331 332 300 292 318 329 326 33 328 72 55 144 91 162 355 42 147 30 195 199 170 231 192 185 203 223 183 245 180 200 197 215 175 192 258 255 191 242 231 214 220 218 202
333 331 328 321 252 263 306 326 352 4 259 354 47 60 116 257 329 53 73 52 178 219 215 243 228 193 226 181 199 180 102 347 153 202 236 226 211 255 236 250 260 217 223 218 198
334 334 311 250 237 21 326 51 50 193 32 343 337 116 239 252 262 201 192 188 206 208 217 188 221 208 187 178 257 194 160 233 228 199 243 211 202 238 268 229 229 235 221 210 189
335 332 319 254 21 260 312 166 208 311 313 353 334 209 189 203 241 240 223 241 223 216 244 221 267 190 198 204 191 199 201 219 258 212 235 176 217 246 234 215 219 236 277 162 173
339 338 334 2 225 265 91 201 249 330 329 341 310 359 314 277 264 263 230 229 236 195 211 221 242 199 168 229 198 178 213 232 253 244 263 214 286 303 213 240 242 223 183 161 159
342 341 359 36 127 144 202 238 259 267 324 287 284 59 288 344 334 332 303 268 292 2 283 304 264 226 294 78 248 206 158 185 200 242 245 193 227 245 217 247 238 226 211 144 139
351 20 17 75 160 43 226 237 289 293 7 348 350 299 299 324 319 302 276 308 6 349 341 75 256 284 24 208 225 149 266 244 274 239 278 290 212 31 328 333 317 336 89 112 126
356 344 42 146 53 321 263 282 327 315 286 139 115 271 341 338 287 260 262 268 3 332 326 33 317 283 232 262 294 8 222 253 279 299 318 337 202 327 289 11 337 74 98 108 124
346 270 20 173 198 293 296 299 284 314 357 28 353 313 302 279 271 270 28 35 3 326 359 354 315 326 329 351 28 46 34 299 295 303 267 259 260 200 37 42 9 114 133 133 122
27 350 331 29 21 303 341 276 296 336 333 351 250 328 26 325 283 282 326 354 338 333 316 305 263 227 259 265 289 290 254 161 186 216 271 268 303 304 314 312 208 184 150 146 144
23 57 173 312 339 334 308 294 307 348 0 33 5 37 341 244 302 266 250 299 313 288 324 228 257 249 251 254 263 263 282 277 236 247 245 267 260 272 276 278 210 179 152 153 160
54 18 358 285 291 328 359 344 343 322 356 292 304 337 330 263 272 290 293 242 240 321 216 263 269 277 270 268 256 256 256 271 271 254 252 250 263 252 317 42 133 171 171 172 170
30 43 77 298 347 18 352 338 339 337 345 22 23 331 304 319 330 291 264 264 259 259 255 229 235 252 269 327 344 315 218 235 246 236 232 252 241 357 324 334 235 184 184 179 173